GW7395 Weather Reports


time (UTC)temp
C
wind
direction
speed
KPH
gust
KPH
rain 1hr
cm
rain 24hr
cm
rain mn
cm
humidity
%
barometer
mb
20260507194529 15 272 3.2 11.3 0.00 0.00 0.00 22 1009.5
20260507193020 15 329 8.0 14.5 0.00 0.00 0.00 22 1009.6
20260507191522 15 262 1.6 11.3 0.00 0.00 0.00 23 1009.7
20260507190012 16 327 8.0 17.7 0.00 0.00 0.00 20 1009.7
20260507184511 16 8 4.8 9.7 0.00 0.00 0.00 20 1009.9
20260507183020 16 139 3.2 9.7 0.00 0.00 0.00 22 1010.1
20260507181520 15 283 3.2 11.3 0.00 0.00 0.00 21 1010.3
20260507180026 15 215 3.2 11.3 0.00 0.00 0.00 21 1010.3
20260507174512 14 287 1.6 12.9 0.00 0.00 0.00 23 1010.5
20260507173034 15 302 4.8 9.7 0.00 0.00 0.00 22 1010.4
20260507171521 14 41 3.2 11.3 0.00 0.00 0.00 23 1010.4
20260507170024 13 231 3.2 8.0 0.00 0.00 0.00 24 1010.7
20260507164533 13 271 3.2 8.0 0.00 0.00 0.00 25 1010.6
20260507163028 12 189 1.6 6.4 0.00 0.00 0.00 26 1010.8
20260507161518 12 297 1.6 3.2 0.00 0.00 0.00 25 1010.9
20260507160025 11 250 0.0 4.8 0.00 0.00 0.00 31 1011.0
20260507154523 11 209 1.6 6.4 0.00 0.00 0.00 32 1011.2
20260507153034 10 176 1.6 6.4 0.00 0.00 0.00 38 1011.4
20260507151531 10 176 0.0 4.8 0.00 0.00 0.00 38 1011.4
20260507150018 9 153 0.0 3.2 0.00 0.00 0.00 41 1011.5
20260507144530 8 197 1.6 3.2 0.00 0.00 0.00 44 1011.3
20260507143027 7 142 0.0 8.0 0.00 0.00 0.00 45 1011.3
20260507141529 6 117 0.0 0.0 0.00 0.00 0.00 49 1011.6
20260507140018 5 178 0.0 1.6 0.00 0.00 0.00 56 1011.4
20260507134518 3 106 0.0 0.0 0.00 0.00 0.00 54 1011.4
20260507133026 2 169 0.0 0.0 0.00 0.00 0.00 62 1011.4
20260507131516 1 230 0.0 0.0 0.00 0.00 0.00 70 1011.5
20260507130013 0 280 0.0 0.0 0.00 0.00 0.00 74 1011.5
20260507124519 -1 250 0.0 0.0 0.00 0.00 0.00 77 1011.6
20260507123021 -2 223 0.0 0.0 0.00 0.00 0.00 80 1011.5
20260507121524 -3 280 0.0 0.0 0.00 0.00 0.00 81 1011.3
20260507120008 -4 280 0.0 0.0 0.00 0.00 0.00 82 1011.2
20260507114512 -4 274 0.0 0.0 0.00 0.00 0.00 86 1011.2
20260507113036 -4 296 0.0 0.0 0.00 0.00 0.00 86 1011.1
20260507111520 -4 296 0.0 0.0 0.00 0.00 0.00 86 1011.0
20260507110025 -4 51 0.0 0.0 0.00 0.00 0.00 83 1010.9
20260507104537 -4 51 0.0 0.0 0.00 0.00 0.00 82 1010.9
20260507103017 -3 51 0.0 0.0 0.00 0.00 0.00 79 1010.8
20260507101518 -3 51 0.0 0.0 0.00 0.00 0.00 79 1010.9
20260507100018 -3 51 0.0 0.0 0.00 0.00 0.00 79 1011.0
20260507094526 -3 51 0.0 0.0 0.00 0.00 0.00 78 1010.9
20260507093030 -2 51 0.0 0.0 0.00 0.00 0.00 79 1010.9
20260507091510 -2 51 0.0 0.0 0.00 0.00 0.00 69 1010.9
20260507090015 -2 51 0.0 0.0 0.00 0.00 0.00 73 1010.8
20260507084525 -2 51 0.0 0.0 0.00 0.00 0.00 78 1011.1
20260507083024 -2 51 0.0 0.0 0.00 0.00 0.00 71 1010.9
20260507081534 -2 9 0.0 0.0 0.00 0.00 0.00 68 1010.8
20260507080030 -2 9 0.0 0.0 0.00 0.00 0.00 71 1010.9
20260507074518 -2 4 0.0 0.0 0.00 0.00 0.00 70 1010.9
20260507073020 -2 1 0.0 0.0 0.00 0.00 0.00 71 1010.8
20260507071525 -2 70 0.0 0.0 0.00 0.00 0.00 72 1010.7
20260507070028 -1 32 0.0 0.0 0.00 0.00 0.00 68 1010.6
20260507064527 -1 34 0.0 0.0 0.00 0.00 0.00 67 1010.6
20260507063003 -1 24 0.0 0.0 0.00 0.00 0.00 69 1010.6
20260507061503 -1 24 0.0 0.0 0.00 0.00 0.00 63 1010.7
20260507060004 0 24 0.0 0.0 0.00 0.00 0.00 61 1010.5
20260507054505 0 24 0.0 0.0 0.00 0.00 0.00 57 1010.5
20260507053008 0 23 0.0 0.0 0.00 0.00 0.00 58 1010.7
20260507051503 1 23 0.0 0.0 0.00 0.00 0.00 54 1010.8
20260507050003 1 24 0.0 0.0 0.00 0.00 0.00 51 1010.6
20260507044504 1 68 0.0 0.0 0.00 0.00 0.00 46 1010.7
20260507043019 2 68 0.0 0.0 0.00 0.00 0.00 44 1010.8
20260507041512 2 68 0.0 0.0 0.00 0.00 0.00 44 1010.8
20260507040012 3 68 0.0 0.0 0.00 0.00 0.00 41 1010.8
20260507034503 4 68 0.0 0.0 0.00 0.00 0.00 45 1010.9
20260507033006 3 91 0.0 0.0 0.00 0.00 0.00 38 1010.9
20260507031508 4 86 0.0 1.6 0.00 0.00 0.00 34 1010.9
20260507030015 5 11 1.6 4.8 0.00 0.00 0.00 32 1010.8
20260507024519 6 17 3.2 4.8 0.00 0.00 0.00 31 1010.6
20260507023007 6 15 3.2 4.8 0.00 0.00 0.00 30 1010.6
20260507021509 7 356 1.6 3.2 0.00 0.00 0.00 29 1010.7
20260507020013 8 356 3.2 4.8 0.00 0.00 0.00 26 1010.8
20260507014518 10 352 0.0 3.2 0.00 0.00 0.00 23 1010.7
20260507013021 12 344 1.6 8.0 0.00 0.00 0.00 21 1010.8
20260507011534 12 336 1.6 9.7 0.00 0.00 0.00 20 1010.7
20260507010008 12 299 6.4 14.5 0.00 0.00 0.00 20 1010.8
20260507004515 13 288 4.8 11.3 0.00 0.00 0.00 19 1010.9
20260507003016 13 287 9.7 17.7 0.00 0.00 0.00 19 1011.0
20260507001545 13 290 9.7 20.9 0.00 0.00 0.00 20 1011.0
20260507000024 13 280 6.4 12.9 0.00 0.00 0.00 20 1011.1
20260506234510 13 294 3.2 19.3 0.00 0.00 0.00 23 1011.2
20260506233018 13 254 3.2 11.3 0.00 0.00 0.00 20 1011.3
20260506231518 13 284 6.4 16.1 0.00 0.00 0.00 21 1011.5
20260506230026 13 296 9.7 16.1 0.00 0.00 0.00 19 1011.6
20260506224524 13 316 8.0 14.5 0.00 0.00 0.00 19 1011.6
20260506223013 13 283 6.4 17.7 0.00 0.00 0.00 21 1011.6
20260506221515 13 263 3.2 19.3 0.00 0.00 0.00 19 1011.9
20260506220004 13 299 9.7 17.7 0.00 0.00 0.00 22 1012.2
20260506214505 12 248 3.2 14.5 0.00 0.00 0.00 24 1012.4
20260506213006 12 240 3.2 19.3 0.00 0.00 0.00 24 1012.8
20260506211515 12 295 3.2 14.5 0.00 0.00 0.00 23 1013.0
20260506210043 12 319 9.7 17.7 0.00 0.00 0.00 25 1013.2
20260506204504 12 295 6.4 22.5 0.00 0.00 0.00 24 1013.5
20260506203010 11 286 8.0 16.1 0.00 0.00 0.00 27 1013.7
20260506201516 12 328 6.4 16.1 0.00 0.00 0.00 26 1013.6
20260506200017 12 275 8.0 16.1 0.00 0.00 0.00 24 1014.1